Wind_Speed
12 11 10 8 6 4 3 5 11 17 16 13 11 11 10 9 9 10 9 9 9 9 9 9 9 10 10 10 9 9 9 9 9 9 9 9 8 7 6 5 4 3 3 2 1 1 1 2 2
12 12 11 9 7 4 1 8 16 17 15 12 11 11 12 11 11 11 11 10 10 10 10 10 11 11 11 11 11 11 12 11 11 11 11 10 10 9 8 7 6 5 4 4 3 3 2 2 2
13 13 12 10 7 4 6 15 20 19 15 12 11 12 12 11 11 11 11 11 11 11 11 12 12 13 13 13 13 14 14 14 14 13 13 12 11 11 10 9 8 7 6 6 5 4 4 4 4
14 13 12 11 7 5 12 18 21 19 15 12 12 13 12 12 12 11 12 12 12 12 12 12 13 13 14 14 15 15 15 16 16 15 14 14 13 12 11 10 9 9 8 7 7 6 5 5 6
15 14 12 10 8 11 16 19 19 15 14 12 13 14 13 12 12 11 12 12 12 12 13 13 14 14 15 15 16 16 16 17 17 17 16 15 14 14 13 12 11 11 10 9 8 8 7 7 8
15 14 11 9 11 17 22 20 17 14 13 14 16 15 12 12 12 12 12 13 13 13 13 14 15 16 16 17 17 17 18 18 18 19 18 17 17 16 15 14 13 12 12 11 10 10 9 9 9
17 14 11 9 13 18 21 18 14 14 16 15 15 15 11 12 12 12 13 13 13 13 14 15 16 17 18 18 19 19 20 20 20 20 20 20 19 18 17 15 14 14 14 13 12 12 11 11 10
17 16 13 11 14 17 22 18 15 14 15 17 17 16 13 12 12 13 13 14 14 14 15 16 16 17 18 19 20 21 22 22 22 22 22 22 21 20 19 18 17 16 15 14 14 13 13 12 12
16 14 12 12 14 18 22 18 16 17 18 18 19 15 12 12 13 14 14 15 15 15 16 16 17 18 19 20 21 22 23 24 24 24 24 23 23 21 20 20 19 18 17 16 16 16 15 15 14
15 12 11 16 17 19 20 16 17 17 18 19 17 13 12 12 14 15 15 16 16 16 16 17 17 19 20 21 22 22 23 24 24 25 25 24 24 23 22 21 21 20 19 18 18 17 17 17 16
16 13 18 22 22 20 18 17 17 16 19 20 17 14 13 13 15 16 16 17 17 17 17 17 17 19 20 19 21 22 22 24 25 25 26 26 26 25 24 22 22 21 20 19 19 18 18 18 18
17 18 21 21 22 20 17 16 17 19 21 20 17 14 12 14 16 17 18 18 19 18 18 18 17 19 20 21 21 22 23 22 24 26 27 28 26 24 23 22 22 22 21 20 19 20 20 19 19
17 19 20 19 18 18 18 18 17 19 20 19 19 15 13 15 17 17 19 19 19 19 18 20 19 19 20 22 21 22 24 24 23 25 26 27 24 22 23 23 22 22 21 20 20 20 20 19 19
17 18 18 17 17 17 17 17 18 19 18 18 16 15 16 17 17 18 19 20 20 21 21 20 21 21 21 21 21 23 23 23 24 23 24 24 24 24 23 22 22 22 21 21 21 21 20 20 20
16 16 15 15 16 16 16 17 19 18 18 17 16 17 18 18 18 19 20 20 21 20 20 20 21 22 22 22 23 23 22 23 24 24 24 26 26 25 24 24 23 23 22 22 22 22 22 22 22
15 14 14 14 15 15 15 16 19 18 18 17 18 19 19 19 19 20 20 20 20 20 20 21 22 23 23 23 23 23 23 24 24 25 25 27 26 25 24 24 23 24 24 23 22 22 23 23 22
12 11 12 15 16 14 15 17 19 20 19 18 18 19 19 19 19 20 21 20 21 21 21 21 22 23 23 23 24 23 24 24 24 24 24 24 24 23 23 24 24 24 24 23 23 24 24 24 24
10 10 11 15 17 14 15 18 19 19 18 19 18 19 19 19 19 20 20 20 21 22 22 22 22 23 23 23 23 24 24 24 25 24 24 24 24 24 24 24 24 25 25 24 24 24 24 24 24
12 12 13 15 18 16 16 19 20 18 19 20 19 20 19 20 18 19 19 20 22 22 22 22 22 23 24 24 24 24 24 25 25 25 24 24 25 25 25 25 25 26 25 25 25 25 25 24 24
15 14 15 16 19 17 17 18 19 19 20 20 21 20 20 19 18 18 20 21 21 22 23 23 23 24 24 24 25 25 25 25 25 24 24 25 25 25 25 25 26 26 25 25 25 25 25 24 24
15 15 15 17 19 18 16 17 19 20 21 21 20 21 21 21 19 20 21 21 22 22 22 23 24 25 25 25 25 25 25 24 23 23 23 24 24 24 24 24 25 26 26 26 26 26 26 25 25
16 16 17 18 19 18 17 18 21 20 22 21 20 21 21 22 20 20 21 21 22 21 22 23 23 25 25 26 25 25 24 24 23 23 23 23 23 23 24 24 25 26 26 26 26 26 26 26 26
15 15 17 17 18 18 19 20 20 22 23 23 22 21 21 21 21 20 21 22 22 22 23 24 25 26 26 26 25 25 25 24 23 23 24 25 25 24 24 24 24 25 25 25 25 26 26 26 26
16 15 16 16 17 19 18 20 21 24 24 23 21 21 20 20 21 20 21 22 22 23 24 25 25 26 27 26 24 24 23 23 23 23 24 24 24 24 24 24 24 24 24 25 25 25 26 26 27
16 15 15 16 18 20 19 21 22 25 23 22 19 20 21 21 21 21 22 22 23 24 25 25 25 26 27 25 25 24 23 23 23 23 23 22 22 22 23 23 24 25 25 25 25 26 26 26 27
17 16 16 16 17 18 17 19 22 22 21 21 18 20 22 22 22 22 22 23 24 24 25 25 25 25 25 25 25 24 24 23 23 23 23 23 23 24 24 24 24 25 26 26 25 26 26 27 27
16 16 15 17 17 18 18 18 20 21 21 21 21 21 22 22 22 23 23 22 23 24 24 25 25 25 25 24 24 24 24 24 24 24 24 23 24 24 24 24 25 25 25 25 26 26 26 27 27
16 16 17 18 17 19 19 20 21 20 19 20 21 22 22 22 22 23 23 24 24 25 24 25 25 25 25 24 24 24 25 25 25 25 24 24 24 23 23 23 24 24 25 26 26 26 26 26 26
16 16 18 18 19 19 19 21 21 21 19 20 20 21 22 22 22 23 23 24 24 24 25 25 25 26 25 25 26 26 26 26 26 26 25 24 24 25 25 25 24 24 25 25 25 25 26 26 26
16 16 18 20 20 20 22 24 23 22 21 18 19 20 22 23 23 23 24 24 24 25 25 26 25 25 25 26 26 26 27 26 26 26 25 25 25 25 25 25 24 24 24 24 24 24 24 25 25
Wind_Direction
242 241 236 230 216 193 141 190 230 248 251 250 252 258 260 264 269 275 288 289 287 284 285 281 278 270 267 265 263 261 257 256 255 256 259 257 253 250 249 243 240 237 236 240 263 315 359 13 16
239 238 233 225 207 133 146 231 241 252 259 255 251 254 260 267 272 277 285 289 287 288 288 281 278 273 268 264 262 259 258 258 257 256 257 257 255 253 252 250 247 243 245 253 264 277 287 304 310
236 235 231 220 195 136 210 235 248 259 262 258 255 254 264 272 272 275 282 286 286 286 287 283 279 274 269 265 262 260 259 260 259 257 257 256 255 254 253 254 252 249 248 257 266 271 273 280 285
232 229 223 213 179 184 219 236 250 262 263 261 261 260 266 271 275 279 283 286 287 288 287 284 278 273 268 266 263 261 261 261 259 257 256 256 256 256 255 255 255 254 253 258 264 268 269 272 278
229 225 215 200 183 216 230 238 250 254 263 262 261 263 266 272 279 282 285 288 288 289 288 283 276 273 268 264 263 261 260 261 259 256 255 255 255 256 257 256 256 256 258 261 264 266 268 271 275
223 217 209 196 200 224 237 247 249 248 256 258 260 256 264 275 280 284 287 288 289 288 287 282 275 271 268 265 261 261 259 259 258 256 254 254 254 256 257 257 256 256 258 262 265 266 269 272 275
222 209 198 198 219 239 248 250 245 247 249 254 255 253 263 276 281 285 288 290 290 287 286 281 276 271 268 266 262 261 259 257 256 255 254 255 255 255 256 256 256 256 257 261 265 267 269 271 275
221 214 196 198 225 246 255 251 241 237 246 257 258 258 265 274 281 287 290 291 290 289 286 282 277 273 270 267 263 262 258 256 255 254 255 256 255 254 254 255 255 256 258 260 264 268 269 270 274
213 209 200 203 221 241 254 252 243 240 248 254 259 259 264 275 284 288 291 292 291 289 287 283 278 276 273 270 265 263 259 256 255 253 255 256 256 255 256 255 254 255 258 260 263 266 269 270 273
200 195 200 209 216 232 250 251 245 248 253 255 256 263 275 279 283 288 291 293 291 289 285 283 281 278 274 268 265 263 262 257 256 256 255 256 256 256 256 256 255 256 257 259 262 266 269 269 271
194 195 210 217 222 227 241 246 245 252 255 257 255 255 268 278 282 287 290 292 291 289 287 288 288 284 277 274 268 264 264 260 258 258 258 258 256 255 256 257 256 255 256 258 261 266 268 270 271
203 206 219 224 231 233 239 241 240 246 252 254 256 262 269 279 284 287 288 290 291 290 290 287 286 286 284 280 277 267 265 267 263 261 258 258 257 255 255 257 258 256 256 256 260 264 267 272 271
215 222 225 232 235 233 236 242 245 254 258 261 264 268 274 280 284 287 288 289 291 291 290 288 287 286 285 281 278 277 272 270 269 264 263 258 256 255 254 254 256 260 259 260 261 266 270 273 272
220 228 231 235 235 237 237 244 250 255 262 266 270 273 276 281 283 286 289 292 293 292 290 290 286 287 283 279 284 282 277 275 274 272 267 265 260 257 260 258 259 262 263 266 267 267 271 273 274
221 229 234 238 241 240 242 245 247 252 259 263 268 271 278 280 282 285 288 291 293 291 290 289 288 287 286 282 285 281 279 282 280 276 273 270 264 261 260 261 261 262 266 268 268 269 272 275 273
222 228 234 241 243 244 244 249 255 259 258 266 271 271 274 278 281 284 285 288 292 295 293 290 290 290 290 286 287 285 285 284 282 277 274 271 266 261 261 264 265 264 265 267 268 271 273 275 273
221 229 229 243 251 247 246 248 254 258 262 269 271 268 270 276 279 283 285 288 291 293 293 292 292 292 290 287 288 286 284 284 283 281 276 270 267 265 264 267 268 267 267 268 271 273 274 275 274
223 233 230 242 258 253 245 249 254 262 268 271 272 271 271 273 276 280 283 286 288 291 293 293 293 291 291 289 286 284 283 281 280 281 277 272 269 269 269 269 269 269 270 270 272 273 274 275 274
208 220 232 240 254 253 247 254 259 266 272 274 273 272 272 273 273 276 280 284 287 290 291 292 291 289 290 288 287 285 282 281 280 280 278 274 271 270 269 269 270 272 272 274 275 276 276 276 277
209 214 218 235 245 253 247 254 258 261 268 271 271 272 276 274 277 278 282 283 286 289 290 290 291 291 291 289 290 287 283 280 281 281 276 273 272 272 272 271 270 269 271 274 275 276 276 276 278
212 212 217 233 248 258 257 255 259 262 269 271 270 271 275 276 279 280 282 285 287 289 290 289 289 291 292 290 289 287 284 281 279 276 275 275 275 274 274 274 272 270 271 272 273 275 275 276 276
214 218 224 230 244 255 260 261 261 264 268 270 274 273 275 277 280 282 283 285 285 287 291 291 290 291 291 290 288 287 284 282 279 279 280 280 279 276 275 274 273 272 272 272 273 274 275 276 276
216 222 231 235 242 250 258 260 265 266 269 272 273 270 274 278 280 282 284 285 284 285 289 291 289 290 291 291 291 289 288 286 283 281 281 282 282 279 279 277 274 275 274 275 275 276 275 275 277
221 224 231 237 242 248 254 259 262 267 269 270 270 272 277 281 283 284 286 284 284 284 287 290 289 290 291 292 292 291 290 289 288 285 284 283 281 280 278 278 277 277 276 276 277 276 275 275 276
225 228 235 243 247 252 252 254 257 267 271 271 271 278 280 282 285 284 287 287 285 284 285 287 289 289 290 290 291 291 290 290 290 290 289 287 285 281 279 279 280 278 277 277 277 277 276 276 276
232 228 232 248 260 262 259 254 256 264 270 277 275 278 279 281 282 285 288 289 288 286 285 286 289 290 290 291 290 288 288 288 289 290 290 288 285 283 282 280 278 279 278 276 276 276 276 276 276
232 230 230 245 261 268 261 259 259 259 266 274 276 276 278 280 283 286 288 290 290 288 288 287 287 289 291 292 289 288 287 288 290 291 290 287 285 284 282 279 278 279 279 277 277 277 276 275 274
236 234 233 239 255 267 267 264 260 263 265 272 274 276 279 281 284 286 289 290 291 291 290 288 287 287 289 290 290 288 287 287 290 291 289 288 286 285 284 284 282 282 281 279 278 277 277 276 276
238 236 234 241 247 261 273 272 270 277 278 276 278 279 281 282 284 286 288 290 291 292 290 289 287 288 289 289 289 288 289 289 289 289 289 288 288 287 287 287 285 283 282 280 279 278 278 277 276
236 236 239 244 249 254 262 271 276 281 282 281 283 285 285 283 285 286 289 290 289 291 291 290 288 288 288 289 289 289 289 288 287 288 289 287 286 286 286 286 285 283 283 282 281 280 279 278 277
Height
5894 5896 5898 5900 5903 5905 5906 5908 5909 5907 5907 5907 5907 5907 5906 5906 5907 5909 5907 5906 5907 5907 5907 5907 5907 5907 5907 5907 5907 5907 5907 5908 5908 5908 5908 5908 5908 5908 5907 5907 5906 5906 5906 5906 5905 5905 5904 5904 5904
5893 5895 5897 5899 5901 5903 5907 5907 5907 5906 5905 5905 5905 5905 5905 5905 5905 5906 5905 5905 5906 5905 5905 5905 5905 5905 5905 5905 5905 5906 5906 5906 5906 5906 5907 5907 5907 5906 5906 5906 5906 5905 5905 5905 5905 5904 5904 5904 5904
5891 5893 5895 5898 5900 5902 5907 5906 5904 5903 5903 5903 5903 5903 5904 5904 5904 5904 5904 5904 5904 5904 5904 5903 5903 5903 5903 5903 5904 5904 5904 5904 5904 5905 5905 5905 5905 5905 5905 5905 5905 5904 5904 5904 5904 5904 5904 5903 5903
5889 5891 5894 5898 5899 5902 5903 5902 5901 5901 5901 5901 5901 5901 5902 5902 5902 5903 5902 5902 5902 5902 5902 5901 5901 5901 5901 5901 5901 5901 5901 5902 5902 5902 5902 5903 5903 5903 5903 5903 5903 5903 5903 5903 5903 5903 5903 5902 5902
5886 5889 5892 5895 5898 5901 5900 5899 5899 5900 5899 5899 5899 5899 5899 5899 5900 5900 5900 5900 5900 5900 5899 5899 5899 5899 5898 5898 5898 5899 5899 5899 5899 5899 5900 5900 5901 5901 5901 5902 5902 5902 5901 5901 5901 5902 5901 5901 5901
5885 5887 5890 5893 5897 5898 5898 5897 5898 5898 5897 5897 5896 5895 5896 5897 5897 5898 5898 5897 5897 5898 5897 5896 5896 5896 5895 5895 5895 5896 5896 5896 5896 5896 5897 5897 5898 5898 5899 5899 5899 5899 5899 5900 5900 5900 5900 5900 5900
5882 5884 5888 5892 5896 5896 5895 5895 5895 5896 5895 5894 5892 5891 5892 5894 5895 5895 5895 5895 5895 5895 5894 5894 5893 5893 5892 5892 5892 5892 5892 5893 5893 5893 5894 5894 5895 5896 5896 5896 5896 5897 5897 5897 5898 5898 5898 5898 5898
5879 5882 5885 5891 5894 5894 5892 5892 5893 5893 5893 5892 5891 5888 5889 5891 5893 5893 5893 5893 5893 5892 5892 5891 5890 5890 5889 5889 5889 5889 5889 5889 5890 5890 5890 5891 5891 5892 5893 5893 5893 5894 5894 5895 5895 5896 5896 5896 5896
5876 5881 5884 5890 5892 5891 5888 5889 5890 5891 5890 5888 5886 5884 5886 5889 5890 5890 5891 5890 5890 5889 5889 5888 5887 5887 5886 5886 5885 5885 5885 5885 5886 5886 5886 5887 5887 5888 5889 5889 5890 5890 5891 5892 5892 5892 5893 5893 5893
5875 5878 5883 5886 5887 5887 5885 5886 5887 5888 5888 5886 5883 5884 5885 5886 5887 5888 5888 5887 5887 5886 5886 5885 5884 5883 5882 5881 5880 5881 5881 5881 5881 5882 5882 5883 5884 5884 5885 5885 5885 5886 5887 5888 5889 5889 5889 5890 5890
5872 5875 5878 5879 5881 5882 5883 5883 5883 5885 5884 5883 5881 5882 5883 5885 5885 5885 5885 5884 5884 5883 5882 5881 5881 5879 5877 5876 5875 5876 5877 5877 5877 5878 5878 5879 5879 5879 5879 5880 5881 5882 5883 5884 5885 5885 5885 5886 5886
5870 5872 5873 5876 5877 5879 5880 5880 5880 5879 5879 5879 5879 5880 5881 5882 5883 5883 5882 5881 5880 5879 5879 5878 5876 5875 5874 5872 5871 5872 5872 5873 5873 5873 5873 5873 5874 5874 5875 5876 5877 5877 5879 5880 5880 5881 5881 5882 5882
5866 5869 5870 5872 5874 5876 5877 5877 5877 5876 5877 5876 5877 5878 5878 5880 5880 5879 5879 5878 5877 5876 5875 5874 5872 5872 5871 5868 5867 5868 5868 5869 5869 5868 5866 5868 5869 5870 5870 5871 5872 5873 5874 5874 5875 5876 5877 5878 5878
5864 5866 5868 5869 5871 5873 5873 5875 5873 5873 5874 5874 5874 5874 5876 5877 5877 5876 5876 5875 5874 5873 5872 5871 5869 5868 5867 5864 5863 5864 5863 5864 5865 5864 5863 5864 5865 5865 5866 5867 5868 5868 5869 5870 5870 5872 5872 5873 5873
5861 5863 5865 5866 5868 5869 5871 5872 5870 5872 5872 5871 5872 5872 5873 5873 5873 5873 5872 5871 5870 5870 5869 5867 5865 5865 5864 5861 5861 5860 5859 5859 5860 5860 5859 5859 5860 5860 5861 5862 5863 5864 5865 5866 5867 5867 5868 5868 5868
5858 5860 5863 5864 5865 5867 5869 5868 5868 5869 5869 5870 5870 5870 5870 5870 5870 5869 5868 5868 5867 5866 5865 5864 5862 5861 5859 5858 5858 5857 5856 5855 5855 5854 5854 5854 5854 5855 5855 5857 5858 5859 5860 5861 5862 5862 5862 5863 5863
5856 5859 5861 5862 5862 5864 5865 5865 5864 5865 5866 5867 5867 5866 5866 5866 5866 5865 5864 5864 5863 5862 5862 5860 5859 5857 5856 5855 5854 5854 5853 5852 5851 5850 5850 5849 5850 5850 5851 5852 5853 5854 5855 5856 5857 5857 5857 5858 5858
5856 5859 5860 5861 5860 5861 5862 5861 5861 5860 5862 5863 5863 5862 5861 5862 5862 5862 5861 5860 5860 5859 5858 5857 5855 5854 5852 5850 5849 5849 5848 5847 5847 5846 5846 5845 5845 5846 5846 5847 5847 5848 5850 5850 5851 5851 5852 5852 5852
5855 5858 5860 5861 5859 5859 5860 5859 5858 5858 5859 5859 5859 5858 5857 5857 5856 5857 5857 5856 5856 5855 5853 5852 5851 5849 5848 5846 5845 5843 5843 5842 5842 5841 5841 5840 5840 5840 5841 5842 5843 5843 5844 5845 5845 5846 5846 5846 5847
5852 5855 5858 5859 5857 5856 5857 5857 5856 5856 5856 5856 5856 5854 5853 5852 5851 5851 5852 5852 5851 5850 5849 5848 5846 5844 5843 5842 5840 5839 5838 5837 5836 5836 5835 5835 5835 5834 5835 5836 5837 5837 5838 5838 5839 5840 5840 5840 5841
5850 5853 5855 5856 5855 5855 5855 5855 5854 5852 5852 5852 5851 5850 5850 5849 5848 5848 5848 5847 5847 5846 5844 5843 5841 5840 5837 5836 5835 5833 5832 5832 5831 5830 5830 5830 5829 5829 5829 5830 5830 5831 5832 5832 5833 5833 5834 5834 5834
5847 5850 5851 5852 5853 5852 5853 5852 5851 5848 5849 5848 5847 5846 5846 5844 5845 5844 5844 5843 5842 5841 5840 5838 5837 5835 5833 5832 5830 5829 5827 5827 5826 5825 5824 5824 5823 5823 5823 5823 5824 5825 5825 5826 5826 5827 5827 5828 5828
5844 5846 5847 5848 5849 5850 5849 5849 5848 5844 5844 5843 5842 5842 5841 5840 5840 5840 5840 5838 5837 5836 5835 5834 5832 5830 5829 5827 5825 5824 5822 5821 5821 5820 5819 5819 5818 5817 5817 5818 5818 5818 5819 5819 5820 5820 5820 5821 5821
5840 5843 5844 5844 5845 5846 5846 5845 5844 5840 5840 5838 5837 5837 5837 5837 5836 5836 5835 5834 5832 5831 5830 5829 5827 5825 5824 5822 5820 5818 5817 5816 5815 5814 5814 5813 5812 5812 5811 5812 5812 5812 5813 5813 5813 5813 5814 5814 5814
5837 5839 5841 5841 5841 5842 5842 5840 5839 5837 5836 5834 5832 5834 5833 5833 5832 5831 5830 5829 5827 5826 5825 5823 5822 5820 5819 5817 5815 5813 5812 5811 5810 5809 5808 5807 5806 5806 5805 5806 5806 5806 5806 5806 5806 5806 5806 5807 5807
5834 5836 5838 5839 5838 5837 5837 5835 5833 5831 5831 5830 5829 5830 5829 5829 5828 5827 5826 5824 5823 5821 5819 5818 5816 5815 5813 5812 5810 5808 5807 5806 5805 5803 5802 5801 5801 5800 5799 5799 5799 5799 5799 5799 5799 5799 5799 5799 5799
5830 5832 5834 5835 5834 5833 5832 5830 5828 5826 5826 5826 5826 5826 5825 5825 5824 5823 5821 5820 5818 5816 5814 5813 5811 5810 5808 5806 5805 5803 5801 5800 5799 5797 5796 5795 5794 5794 5793 5793 5793 5792 5792 5792 5792 5792 5792 5792 5792
5828 5829 5830 5831 5830 5829 5828 5827 5824 5822 5821 5823 5822 5822 5821 5820 5819 5818 5816 5815 5813 5811 5809 5807 5805 5804 5802 5801 5799 5797 5796 5794 5793 5792 5790 5789 5788 5787 5786 5786 5786 5785 5785 5785 5785 5784 5784 5784 5784
5824 5825 5826 5827 5827 5826 5824 5823 5819 5818 5818 5819 5818 5817 5816 5816 5814 5813 5811 5810 5808 5805 5803 5801 5800 5798 5796 5795 5793 5791 5789 5788 5787 5786 5784 5783 5782 5781 5780 5780 5779 5779 5778 5777 5777 5777 5777 5777 5777
5820 5821 5823 5823 5822 5822 5820 5821 5816 5815 5814 5814 5814 5812 5811 5810 5809 5807 5806 5804 5802 5800 5798 5796 5794 5792 5790 5788 5787 5785 5783 5782 5780 5779 5778 5777 5776 5775 5774 5773 5773 5772 5771 5770 5770 5770 5770 5770 5770